DW9425 Weather Reports


Display with metric or nautical units.
time (UTC)temp
F
wind
direction
speed
MPH
gust
MPH
rain 1hr
in
rain 24hr
in
rain mn
in
humidity
%
barometer
mb
20260508003047 70 220 8.0 18.0 0.00 0.00 0.00 10 1015.1
20260508001547 72 224 12.0 15.0 0.00 0.00 0.00 9 1015.3
20260508000045 73 181 4.0 14.0 0.00 0.00 0.00 10 1015.3
20260507234552 72 232 7.0 15.0 0.00 0.00 0.00 9 1015.4
20260507231547 73 263 6.0 14.0 0.00 0.00 0.00 10 1015.6
20260507230039 74 223 2.0 11.0 0.00 0.00 0.00 11 1015.7
20260507224536 72 139 1.0 8.0 0.00 0.00 0.00 13 1015.9
20260507221533 72 275 5.0 14.0 0.00 0.00 0.00 15 1016.1
20260507220031 73 244 5.0 15.0 0.00 0.00 0.00 16 1016.3
20260507214528 73 253 8.0 15.0 0.00 0.00 0.00 18 1016.4
20260507213127 72 228 7.0 14.0 0.00 0.00 0.00 18 1016.5
20260507211522 71 229 8.0 20.0 0.00 0.00 0.00 19 1016.8
20260507210026 70 191 6.0 12.0 0.00 0.00 0.00 18 1017.1
20260507204517 70 309 5.0 12.0 0.00 0.00 0.00 14 1017.3
20260507203116 70 320 3.0 10.0 0.00 0.00 0.00 11 1017.5
20260507201512 69 296 7.0 12.0 0.00 0.00 0.00 13 1017.7
20260507200011 67 298 6.0 13.0 0.00 0.00 0.00 13 1017.8
20260507194506 67 321 5.0 15.0 0.00 0.00 0.00 13 1018.0
20260507193003 66 321 5.0 12.0 0.00 0.00 0.00 10 1018.2
20260507191600 65 341 7.0 14.0 0.00 0.00 0.00 17 1018.3
20260507184557 63 281 10.0 14.0 0.00 0.00 0.00 16 1018.5
20260507183051 62 296 10.0 15.0 0.00 0.00 0.00 16 1018.7
20260507181547 61 321 10.0 16.0 0.00 0.00 0.00 18 1018.9
20260507180047 60 320 5.0 18.0 0.00 0.00 0.00 22 1019.0
20260507174543 60 336 11.0 22.0 0.00 0.00 0.00 23 1019.2
20260507173043 58 360 9.0 19.0 0.00 0.00 0.00 23 1019.4
20260507171536 56 351 8.0 19.0 0.00 0.00 0.00 27 1019.8
20260507170028 55 311 11.0 18.0 0.00 0.00 0.00 29 1019.8
20260507164524 53 318 9.0 17.0 0.00 0.00 0.00 37 1019.9
20260507163018 51 330 10.0 16.0 0.00 0.00 0.00 42 1020.1
20260507161521 50 338 9.0 14.0 0.00 0.00 0.00 45 1020.3
20260507160010 48 324 9.0 20.0 0.00 0.00 0.00 47 1020.4
20260507154507 46 295 10.0 16.0 0.00 0.00 0.00 50 1020.6
20260507153002 45 319 10.0 16.0 0.00 0.00 0.00 55 1020.6
20260507151558 44 321 11.0 16.0 0.00 0.00 0.00 58 1020.6
20260507150054 43 348 9.0 16.0 0.00 0.00 0.00 63 1020.6
20260507144613 42 329 7.0 15.0 0.00 0.00 0.00 67 1020.8
20260507143048 40 336 7.0 14.0 0.00 0.00 0.00 72 1020.9
20260507141543 39 13 8.0 13.0 0.00 0.00 0.00 77 1020.9
20260507140036 38 344 8.0 14.0 0.00 0.00 0.00 78 1021.1
20260507134511 37 344 5.0 10.0 0.00 0.00 0.00 81 1021.1
20260507133004 36 348 6.0 12.0 0.00 0.00 0.00 83 1021.0
20260507131600 34 321 4.0 9.0 0.00 0.00 0.00 87 1021.2
20260507130105 32 15 2.0 4.0 0.00 0.00 0.00 88 1021.2
20260507124551 31 101 1.0 2.0 0.00 0.00 0.00 89 1021.2
20260507123049 31 101 1.0 2.0 0.00 0.00 0.00 90 1021.2
20260507121545 31 101 1.0 3.0 0.00 0.00 0.00 90 1021.1
20260507120040 31 101 1.0 3.0 0.00 0.00 0.00 89 1021.1
20260507114538 31 101 0.0 2.0 0.00 0.00 0.00 89 1021.3
20260507113035 32 101 0.0 0.0 0.00 0.00 0.00 88 1021.2
20260507111541 32 101 0.0 3.0 0.00 0.00 0.00 88 1021.1
20260507110033 33 101 3.0 6.0 0.00 0.00 0.00 88 1021.1
20260507104531 33 124 2.0 6.0 0.00 0.00 0.00 86 1021.2
20260507103032 33 124 2.0 4.0 0.00 0.00 0.00 85 1021.2
20260507101537 33 124 2.0 7.0 0.00 0.00 0.00 85 1021.2
20260507100034 33 106 3.0 6.0 0.00 0.00 0.00 84 1021.1
20260507094537 33 120 3.0 8.0 0.00 0.00 0.00 84 1021.1
20260507093022 33 157 3.0 8.0 0.00 0.00 0.00 82 1021.2
20260507091526 34 148 1.0 2.0 0.00 0.00 0.00 80 1021.1
20260507090018 35 148 0.0 5.0 0.00 0.00 0.00 78 1021.1
20260507084517 36 148 3.0 6.0 0.00 0.00 0.00 77 1021.0
20260507083007 36 83 2.0 4.0 0.00 0.00 0.00 76 1020.9
20260507081513 37 83 0.0 1.0 0.00 0.00 0.00 75 1020.8
20260507080001 38 83 2.0 3.0 0.00 0.00 0.00 74 1020.8
20260507074558 38 83 0.0 2.0 0.00 0.00 0.00 73 1020.7
20260507073101 39 83 0.0 4.0 0.00 0.00 0.00 71 1020.6
20260507071557 40 83 1.0 3.0 0.00 0.00 0.00 70 1020.5
20260507070059 39 83 2.0 8.0 0.00 0.00 0.00 72 1020.6
20260507064551 40 73 2.0 8.0 0.00 0.00 0.00 71 1020.4
20260507063050 40 346 2.0 6.0 0.00 0.00 0.00 71 1019.9
20260507061547 40 346 3.0 8.0 0.00 0.00 0.00 70 1019.9
20260507060051 41 350 3.0 10.0 0.00 0.00 0.00 68 1019.7
20260507054548 41 348 2.0 8.0 0.00 0.01 0.00 66 1019.6
20260507053042 42 5 6.0 11.0 0.00 0.01 0.00 66 1019.5
20260507051540 42 355 2.0 6.0 0.00 0.01 0.00 65 1019.4
20260507050038 43 360 2.0 6.0 0.00 0.01 0.00 64 1019.4
20260507044549 43 355 4.0 9.0 0.00 0.06 0.00 62 1019.2
20260507043035 44 346 5.0 11.0 0.00 0.06 0.00 61 1019.0
20260507041533 44 345 7.0 11.0 0.00 0.06 0.00 58 1018.9
20260507040034 45 323 5.0 9.0 0.00 0.06 0.00 53 1018.6
20260507034535 46 329 6.0 13.0 0.00 0.07 0.00 50 1018.6
20260507033027 47 265 0.0 1.0 0.00 0.07 0.00 48 1018.3
20260507031525 48 265 0.0 2.0 0.00 0.07 0.00 46 1018.0
20260507030023 49 265 0.0 2.0 0.00 0.07 0.00 43 1017.8
20260507024521 50 265 0.0 2.0 0.00 0.13 0.00 41 1017.6
20260507023020 51 265 1.0 3.0 0.00 0.13 0.00 39 1017.4
20260507021520 52 265 3.0 6.0 0.00 0.13 0.00 37 1017.2
20260507020016 53 277 5.0 11.0 0.00 0.13 0.00 36 1017.1
20260507014514 55 270 4.0 13.0 0.00 0.18 0.00 35 1017.0
20260507013012 56 261 9.0 18.0 0.00 0.18 0.00 33 1016.7
20260507011511 56 254 10.0 22.0 0.00 0.18 0.00 34 1016.6
20260507010008 56 313 12.0 26.0 0.00 0.18 0.00 32 1016.3
20260507004506 57 267 13.0 20.0 0.00 0.18 0.00 31 1015.8